DW3201 Weather Reports


time (UTC)temp
C
wind
direction
speed
KPH
gust
KPH
rain 1hr
cm
rain 24hr
cm
rain mn
cm
humidity
%
barometer
mb
20260504023055 13 0 0.0 1.6 0.00 0.00 0.00 68 1003.8
20260504021558 13 0 0.0 1.6 0.00 0.00 0.00 62 1003.7
20260504020105 14 255 0.0 1.6 0.00 0.00 0.00 64 1003.8
20260504014554 15 0 0.0 1.6 0.00 0.00 0.00 58 1003.7
20260504013055 16 268 0.0 1.6 0.00 0.00 0.00 58 1003.8
20260504011553 17 239 0.0 3.2 0.00 0.00 0.00 52 1003.6
20260504010101 17 242 0.0 3.2 0.00 0.00 0.00 46 1003.6
20260504004556 18 248 1.6 6.4 0.00 0.00 0.00 45 1003.5
20260504003104 18 256 4.8 8.0 0.00 0.00 0.00 42 1003.5
20260504001602 19 248 6.4 11.3 0.00 0.00 0.00 41 1003.3
20260504000104 19 255 8.0 17.7 0.00 0.00 0.00 40 1003.4
20260503234551 20 233 8.0 16.1 0.00 0.00 0.00 40 1003.4
20260503233055 20 235 6.4 29.0 0.00 0.00 0.00 40 1003.5
20260503231551 20 288 8.0 22.5 0.00 0.00 0.00 40 1003.6
20260503230110 20 242 12.9 20.9 0.00 0.00 0.00 40 1003.6
20260503224554 20 250 11.3 27.4 0.00 0.00 0.00 39 1003.8
20260503223109 19 235 11.3 27.4 0.00 0.00 0.00 40 1003.9
20260503221555 19 256 16.1 25.7 0.00 0.00 0.00 40 1004.1
20260503220054 19 243 12.9 30.6 0.00 0.00 0.00 41 1004.1
20260503214601 19 226 16.1 27.4 0.00 0.00 0.00 41 1004.0
20260503213056 18 243 11.3 37.0 0.00 0.00 0.00 42 1004.5
20260503211602 18 288 12.9 32.2 0.00 0.00 0.00 42 1004.5
20260503210052 18 270 12.9 25.7 0.00 0.00 0.00 43 1004.7
20260503204555 18 191 19.3 30.6 0.00 0.00 0.00 41 1005.0
20260503203057 18 261 17.7 27.4 0.00 0.00 0.00 41 1005.1
20260503201555 17 235 11.3 30.6 0.00 0.00 0.00 48 1005.3
20260503200057 17 292 20.9 33.8 0.00 0.00 0.00 49 1005.7
20260503194619 17 235 16.1 35.4 0.00 0.00 0.00 49 1006.0
20260503193052 16 249 17.7 37.0 0.00 0.00 0.00 48 1006.4
20260503191557 16 246 19.3 32.2 0.00 0.00 0.00 45 1006.4
20260503190052 17 218 16.1 41.8 0.00 0.00 0.00 45 1006.5
20260503184552 17 232 19.3 37.0 0.00 0.00 0.00 43 1006.6
20260503183104 17 132 14.5 37.0 0.00 0.00 0.00 44 1006.8
20260503181605 16 242 19.3 38.6 0.00 0.00 0.00 43 1006.9
20260503180054 16 274 19.3 32.2 0.00 0.00 0.00 45 1006.9
20260503174606 15 242 16.1 38.6 0.00 0.00 0.00 49 1007.4
20260503173105 15 162 14.5 29.0 0.00 0.00 0.00 52 1007.6
20260503171554 14 242 20.9 43.5 0.00 0.00 0.00 54 1008.0
20260503170103 13 238 17.7 32.2 0.00 0.00 0.00 56 1008.2
20260503120112 9 262 14.5 24.1 0.00 0.03 0.00 54 1010.7
20260503081555 8 255 6.4 14.5 0.00 0.03 0.00 54 1011.9
20260503071551 8 240 6.4 17.7 0.00 0.03 0.00 53 1012.0
20260503054551 8 247 6.4 14.5 0.00 0.03 0.00 53 1012.8
20260503053053 8 249 6.4 12.9 0.00 0.03 0.00 53 1012.9
20260503051555 8 245 8.0 16.1 0.00 0.03 0.00 52 1013.0
20260503050058 8 239 6.4 11.3 0.00 0.03 0.00 53 1013.0
20260503044611 8 273 6.4 14.5 0.00 0.03 0.03 52 1013.1
20260503043058 8 259 8.0 12.9 0.00 0.03 0.03 51 1013.2
20260503041610 8 260 6.4 11.3 0.00 0.03 0.03 52 1013.3
20260503040057 8 232 4.8 12.9 0.00 0.03 0.03 51 1013.3
20260503034555 8 200 6.4 12.9 0.00 0.03 0.03 51 1013.5
20260503033114 8 260 4.8 11.3 0.00 0.03 0.03 52 1013.5
20260503031553 9 259 6.4 17.7 0.00 0.03 0.03 51 1013.6
20260503030100 9 243 4.8 11.3 0.00 0.03 0.03 51 1013.8
20260503024601 10 236 4.8 8.0 0.00 0.03 0.03 51 1013.9